ONEWEB-0355 (49218 NORAD) Tracking and Keplerian Element Data

This shows tracking and keplerian element data for the satellite.

Feedback or suggestion? Click here.




ElementValue
Catalog49218
NameONEWEB-0355
Epoch Orbit356
Epoch Day300.58334491
Epoch Year2021
RAAN313.0723
Inclination87.1972
Eccentricity0.0019507
Argument of Perigee144.1329
Mean Anonmoly290.2793
Mean Motion14.87147538
Decay Rate-0.00026251
L11 49218U 21083AJ 21300.58334491 -.00026251 00000-0 -29295-2 0 9998
L22 49218 87.1972 313.0723 0019507 144.1329 290.2793 14.87147538 3569

Live tracking and technical data element details for ONEWEB-0355 (NORAD 49218). ONEWEB-0355 can be tracked NOW for your location showing map with azimuth and elevation plus other details from your city location.

Track the satellite on the map from your city or location and see movement details for azimuth, elevation, latitude, longitude, range, height, and movement on the map or in text.







IsCatalogInMostPopularTable: catalog: 49218, numindb: 11
Update: records affected: 1



GetName: 49218 ONEWEB-0355

Hit Count: updated at: Thu, 28 Oct 2021 11:21:04 GMT